GW2946 Weather Reports


Display with metric or nautical units.
time (UTC)temp
F
wind
direction
speed
MPH
gust
MPH
rain 1hr
in
rain 24hr
in
rain mn
in
humidity
%
barometer
mb
20260508141222 57 203 12.0 14.0 0.00 0.00 0.00 60 1015.3
20260508140719 57 233 8.0 9.0 0.00 0.00 0.00 60 1015.3
20260508140216 57 275 7.0 13.0 0.00 0.00 0.00 59 1015.7
20260508135712 57 230 11.0 11.0 0.00 0.00 0.00 59 1015.4
20260508135207 56 225 13.0 15.0 0.00 0.00 0.00 62 1015.4
20260508134704 56 251 8.0 10.0 0.00 0.00 0.00 62 1015.4
20260508134201 55 229 8.0 9.0 0.00 0.00 0.00 62 1015.3
20260508133658 55 241 9.0 10.0 0.00 0.00 0.00 62 1015.4
20260508133155 55 236 10.0 11.0 0.00 0.00 0.00 61 1015.3
20260508132653 55 231 9.0 10.0 0.00 0.00 0.00 65 1015.3
20260508132150 54 256 14.0 15.0 0.00 0.00 0.00 62 1015.1
20260508131645 54 218 9.0 10.0 0.00 0.00 0.00 65 1015.0
20260508131142 53 239 12.0 13.0 0.00 0.00 0.00 64 1015.4
20260508130639 53 233 11.0 13.0 0.00 0.00 0.00 64 1015.3
20260508130136 53 230 7.0 10.0 0.00 0.00 0.00 66 1015.4
20260508125631 52 225 7.0 8.0 0.00 0.00 0.00 68 1015.1
20260508125129 52 238 10.0 10.0 0.00 0.00 0.00 65 1015.3
20260508124627 52 233 8.0 9.0 0.00 0.00 0.00 66 1015.1
20260508124123 52 242 8.0 11.0 0.00 0.00 0.00 66 1015.2
20260508123622 51 222 10.0 13.0 0.00 0.00 0.00 67 1015.3
20260508123119 51 225 6.0 8.0 0.00 0.00 0.00 67 1015.2
20260508122615 50 222 8.0 10.0 0.00 0.00 0.00 67 1015.2
20260508122112 50 220 5.0 6.0 0.00 0.00 0.00 67 1015.3
20260508121611 50 199 4.0 6.0 0.00 0.00 0.00 70 1015.4
20260508121108 49 235 3.0 4.0 0.00 0.00 0.00 71 1015.4
20260508120606 49 245 3.0 3.0 0.00 0.00 0.00 72 1015.3
20260508120104 48 238 4.0 4.0 0.00 0.00 0.00 69 1015.4
20260508115601 48 234 6.0 7.0 0.00 0.00 0.00 71 1015.3
20260508115057 48 208 4.0 4.0 0.00 0.00 0.00 72 1015.3
20260508114555 48 198 2.0 3.0 0.00 0.00 0.00 72 1015.4
20260508114050 47 205 2.0 3.0 0.00 0.00 0.00 75 1015.2
20260508113548 46 189 3.0 3.0 0.00 0.00 0.00 75 1015.1
20260508113046 46 180 1.0 1.0 0.00 0.00 0.00 74 1015.1
20260508112542 45 140 1.0 1.0 0.00 0.00 0.00 75 1015.0
20260508112039 45 179 2.0 2.0 0.00 0.00 0.00 75 1014.9
20260508111536 45 104 2.0 2.0 0.00 0.00 0.00 76 1015.0
20260508111033 45 58 0.0 1.0 0.00 0.00 0.00 74 1015.1
20260508110531 44 110 2.0 2.0 0.00 0.00 0.00 75 1014.8
20260508110026 44 118 2.0 2.0 0.00 0.00 0.00 74 1015.1
20260508105521 44 105 3.0 3.0 0.00 0.00 0.00 75 1014.8
20260508105019 44 116 2.0 2.0 0.00 0.00 0.00 75 1014.9
20260508104517 44 77 2.0 2.0 0.00 0.00 0.00 76 1015.0
20260508104013 43 112 1.0 1.0 0.00 0.00 0.00 77 1014.8
20260508103510 44 187 4.0 4.0 0.00 0.00 0.00 76 1014.6
20260508103008 44 80 2.0 3.0 0.00 0.00 0.00 76 1014.6
20260508102505 43 103 2.0 2.0 0.00 0.00 0.00 77 1014.4
20260508102003 42 68 1.0 2.0 0.00 0.00 0.00 79 1014.6
20260508101500 42 106 2.0 2.0 0.00 0.00 0.00 79 1014.7
20260508100956 43 68 3.0 3.0 0.00 0.00 0.00 78 1014.6
20260508100455 43 108 2.0 2.0 0.00 0.00 0.00 77 1014.7
20260508095951 43 96 2.0 2.0 0.00 0.00 0.00 77 1014.5
20260508095449 43 171 1.0 1.0 0.00 0.00 0.00 76 1014.4
20260508094946 43 186 2.0 2.0 0.00 0.00 0.00 75 1014.5
20260508094442 44 96 0.0 1.0 0.00 0.00 0.00 75 1014.5
20260508093939 44 204 0.0 0.0 0.00 0.00 0.00 74 1014.5
20260508093436 44 191 1.0 1.0 0.00 0.00 0.00 75 1014.6
20260508092934 44 103 1.0 1.0 0.00 0.00 0.00 74 1014.8
20260508092432 44 79 1.0 1.0 0.00 0.00 0.00 73 1014.4
20260508091930 44 214 1.0 1.0 0.00 0.00 0.00 73 1014.6
20260508091426 45 243 1.0 1.0 0.00 0.00 0.00 73 1014.5
20260508090923 45 258 0.0 1.0 0.00 0.00 0.00 71 1014.7
20260508090422 45 259 1.0 2.0 0.00 0.00 0.00 72 1014.7
20260508085917 44 255 0.0 0.0 0.00 0.00 0.00 74 1014.6
20260508085415 44 255 0.0 0.0 0.00 0.00 0.00 74 1014.7
20260508084911 43 276 0.0 0.0 0.00 0.00 0.00 75 1014.5
20260508084408 43 352 0.0 0.0 0.00 0.00 0.00 76 1014.6
20260508083906 44 352 0.0 0.0 0.00 0.00 0.00 75 1014.5
20260508083403 44 298 0.0 0.0 0.00 0.00 0.00 75 1014.6
20260508082902 44 295 0.0 1.0 0.00 0.00 0.00 75 1014.5
20260508082401 45 32 1.0 1.0 0.00 0.00 0.00 74 1014.5
20260508081858 45 353 4.0 4.0 0.00 0.00 0.00 74 1014.5
20260508081355 44 355 2.0 2.0 0.00 0.00 0.00 76 1014.6
20260508080851 44 37 2.0 3.0 0.00 0.00 0.00 76 1014.4
20260508080349 45 8 1.0 2.0 0.00 0.00 0.00 73 1014.4
20260508075846 45 258 0.0 0.0 0.00 0.00 0.00 73 1014.6
20260508075343 46 239 2.0 2.0 0.00 0.00 0.00 73 1014.4
20260508074841 46 240 4.0 6.0 0.00 0.00 0.00 72 1014.4
20260508074337 46 229 5.0 6.0 0.00 0.00 0.00 72 1014.5
20260508073834 46 220 4.0 4.0 0.00 0.00 0.00 73 1014.4
20260508073332 47 246 7.0 8.0 0.00 0.00 0.00 70 1014.3
20260508072828 47 236 5.0 6.0 0.00 0.00 0.00 71 1014.1
20260508072325 47 226 5.0 6.0 0.00 0.00 0.00 71 1014.4
20260508071822 47 232 6.0 7.0 0.00 0.00 0.00 69 1014.5
20260508071321 48 226 3.0 3.0 0.00 0.00 0.00 72 1014.3
20260508070817 47 224 4.0 4.0 0.00 0.00 0.00 72 1014.4
20260508070316 47 225 4.0 6.0 0.00 0.00 0.00 71 1014.3
20260508065813 47 221 4.0 4.0 0.00 0.00 0.00 74 1014.3
20260508065311 45 235 4.0 4.0 0.00 0.00 0.00 78 1014.5
20260508064809 45 201 2.0 2.0 0.00 0.00 0.00 79 1014.5
20260508064306 45 117 0.0 1.0 0.00 0.00 0.00 79 1014.6
20260508063803 45 79 0.0 0.0 0.00 0.00 0.00 77 1014.5
20260508063302 45 102 1.0 2.0 0.00 0.00 0.00 78 1014.4
20260508062758 45 175 1.0 2.0 0.00 0.00 0.00 75 1014.5
20260508062256 45 90 2.0 2.0 0.00 0.00 0.00 76 1014.5
20260508061753 44 103 1.0 1.0 0.00 0.00 0.00 77 1014.6
20260508061250 44 101 1.0 1.0 0.00 0.00 0.00 79 1014.6
20260508060747 43 81 0.0 1.0 0.00 0.00 0.00 82 1014.6
20260508060245 42 56 0.0 1.0 0.00 0.00 0.00 84 1014.5
20260508055739 42 208 1.0 1.0 0.00 0.00 0.00 85 1014.6
20260508055237 41 221 0.0 0.0 0.00 0.00 0.00 89 1014.9
20260508054733 41 205 1.0 1.0 0.00 0.00 0.00 90 1014.6
20260508054232 41 212 0.0 0.0 0.00 0.00 0.00 90 1014.7
20260508053728 41 174 1.0 3.0 0.00 0.00 0.00 91 1014.9
20260508053225 41 184 0.0 0.0 0.00 0.00 0.00 89 1014.8
20260508052722 41 193 0.0 1.0 0.00 0.00 0.00 89 1014.9
20260508052219 41 194 0.0 0.0 0.00 0.00 0.00 87 1015.0
20260508051716 42 194 0.0 0.0 0.00 0.00 0.00 85 1014.8
20260508051211 42 183 1.0 1.0 0.00 0.00 0.00 85 1014.8
20260508050708 42 181 1.0 2.0 0.00 0.00 0.00 85 1014.9
20260508050206 42 168 1.0 1.0 0.00 0.00 0.00 85 1015.0
20260508045700 42 119 1.0 1.0 0.00 0.00 0.00 85 1015.0
20260508045159 42 127 1.0 1.0 0.00 0.00 0.00 86 1015.0
20260508044656 42 139 1.0 1.0 0.00 0.00 0.00 87 1015.1
20260508044152 42 141 0.0 0.0 0.00 0.00 0.00 87 1015.0
20260508043648 42 214 0.0 1.0 0.00 0.00 0.00 88 1015.2
20260508043146 42 152 2.0 2.0 0.00 0.00 0.00 88 1015.0
20260508042643 41 178 1.0 2.0 0.00 0.00 0.00 89 1015.2
20260508042140 42 177 0.0 0.0 0.00 0.00 0.00 88 1015.0
20260508041636 42 176 0.0 0.0 0.00 0.00 0.00 87 1015.1
20260508041133 42 176 0.0 0.0 0.00 0.00 0.00 86 1015.0
20260508040629 42 175 0.0 0.0 0.00 0.00 0.00 85 1014.9
20260508040127 43 138 0.0 1.0 0.00 0.00 0.00 85 1014.8
20260508035624 43 203 0.0 0.0 0.00 0.00 0.00 84 1014.8
20260508035121 43 214 0.0 0.0 0.00 0.00 0.00 84 1014.8
20260508034618 43 182 1.0 1.0 0.00 0.00 0.00 84 1014.7
20260508034115 43 103 0.0 0.0 0.00 0.00 0.00 84 1014.7
20260508033612 43 85 1.0 1.0 0.00 0.00 0.00 85 1014.8
20260508033111 43 124 1.0 2.0 0.00 0.00 0.00 85 1014.9
20260508032607 43 197 0.0 1.0 0.00 0.00 0.00 85 1015.0
20260508032105 43 195 1.0 1.0 0.00 0.00 0.00 84 1014.9
20260508031601 43 193 0.0 0.0 0.00 0.00 0.00 83 1014.9
20260508031057 44 177 1.0 2.0 0.00 0.00 0.00 83 1014.7
20260508030554 43 89 0.0 1.0 0.00 0.00 0.00 84 1014.9
20260508030052 44 82 0.0 0.0 0.00 0.00 0.00 80 1014.8
20260508025548 44 81 0.0 1.0 0.00 0.00 0.00 81 1014.8
20260508025045 45 80 1.0 2.0 0.00 0.00 0.00 82 1014.9
20260508024541 45 85 1.0 1.0 0.00 0.00 0.00 80 1014.8
20260508024038 45 67 0.0 1.0 0.00 0.00 0.00 80 1014.8
20260508023534 46 127 2.0 2.0 0.00 0.00 0.00 78 1014.9
20260508023032 46 110 1.0 2.0 0.00 0.00 0.00 76 1015.0
20260508022528 46 90 3.0 3.0 0.00 0.00 0.00 77 1014.8
20260508022025 46 83 2.0 2.0 0.00 0.00 0.00 76 1014.9
20260508021521 46 84 2.0 2.0 0.00 0.00 0.00 77 1014.8
20260508021017 48 105 2.0 3.0 0.00 0.00 0.00 73 1015.1
20260508020515 47 98 2.0 2.0 0.00 0.00 0.00 70 1014.9
20260508020012 47 76 2.0 2.0 0.00 0.00 0.00 72 1014.8
20260508015509 48 146 1.0 2.0 0.00 0.00 0.00 66 1014.7
20260508015006 48 237 1.0 1.0 0.00 0.00 0.00 69 1014.8
20260508014503 48 238 2.0 2.0 0.00 0.00 0.00 70 1015.0
20260508013959 48 256 0.0 0.0 0.00 0.00 0.00 69 1014.9
20260508013455 48 257 0.0 0.0 0.00 0.00 0.00 67 1014.9
20260508012952 47 257 0.0 0.0 0.00 0.00 0.00 67 1014.8
20260508012449 48 257 0.0 0.0 0.00 0.00 0.00 67 1014.6
20260508011947 48 256 0.0 0.0 0.00 0.00 0.00 66 1014.6
20260508011445 49 260 1.0 1.0 0.00 0.00 0.00 67 1014.6
20260508010942 50 274 0.0 0.0 0.00 0.00 0.00 64 1014.6
20260508010439 50 289 0.0 0.0 0.00 0.00 0.00 60 1014.6
20260508005936 51 300 0.0 0.0 0.00 0.00 0.00 58 1014.5
20260508005433 51 297 1.0 1.0 0.00 0.00 0.00 57 1014.3
20260508004929 51 298 1.0 2.0 0.00 0.00 0.00 56 1014.5
20260508004425 52 288 2.0 2.0 0.00 0.00 0.00 56 1014.3
20260508003922 52 290 1.0 1.0 0.00 0.00 0.00 56 1014.2
20260508003419 52 295 1.0 2.0 0.00 0.00 0.00 56 1014.2
20260508002916 53 295 2.0 2.0 0.00 0.00 0.00 54 1014.3
20260508002407 53 293 2.0 2.0 0.00 0.00 0.00 54 1014.2
20260508001903 53 303 1.0 2.0 0.00 0.00 0.00 54 1014.0
20260508001359 54 303 2.0 2.0 0.00 0.00 0.00 54 1014.0
20260508000856 54 310 2.0 2.0 0.00 0.00 0.00 56 1014.2
20260508000352 54 321 4.0 4.0 0.00 0.00 0.00 55 1014.0
20260507235849 55 303 4.0 4.0 0.00 0.00 0.00 56 1014.1
20260507235346 56 323 6.0 6.0 0.00 0.00 0.00 52 1014.1
20260507234843 56 303 6.0 7.0 0.00 0.00 0.00 48 1014.0
20260507234340 57 320 3.0 3.0 0.00 0.00 0.00 44 1013.9
20260507233836 57 320 4.0 4.0 0.00 0.00 0.00 45 1013.9
20260507233334 56 315 4.0 4.0 0.00 0.00 0.00 48 1014.0
20260507232832 56 340 5.0 6.0 0.00 0.00 0.00 47 1013.8
20260507232328 57 347 5.0 6.0 0.00 0.00 0.00 47 1013.8
20260507231826 57 331 6.0 7.0 0.00 0.00 0.00 48 1014.0
20260507231322 57 355 6.0 7.0 0.00 0.00 0.00 45 1013.8
20260507230818 57 353 7.0 8.0 0.00 0.00 0.00 47 1014.0
20260507230315 57 332 9.0 11.0 0.00 0.00 0.00 46 1013.8
20260507225810 57 0 13.0 16.0 0.00 0.00 0.00 46 1014.0
20260507225306 57 345 7.0 9.0 0.00 0.00 0.00 45 1014.2
20260507224802 57 359 11.0 13.0 0.00 0.00 0.00 43 1014.0
20260507224259 57 337 9.0 10.0 0.00 0.00 0.00 43 1014.0
20260507223755 57 357 10.0 11.0 0.00 0.00 0.00 44 1014.1
20260507223251 58 329 9.0 11.0 0.00 0.00 0.00 46 1014.0
20260507222749 58 328 10.0 11.0 0.00 0.00 0.00 45 1014.0
20260507222244 58 281 9.0 10.0 0.00 0.00 0.00 45 1014.1
20260507221742 59 351 10.0 13.0 0.00 0.00 0.00 46 1014.1
20260507221238 58 336 7.0 8.0 0.00 0.00 0.00 47 1014.1
20260507220735 57 349 10.0 13.0 0.00 0.00 0.00 46 1014.1
20260507220233 57 331 12.0 15.0 0.00 0.00 0.00 50 1014.0
20260507215728 58 314 9.0 11.0 0.00 0.00 0.00 48 1014.1
20260507215227 58 336 9.0 10.0 0.00 0.00 0.00 48 1013.9
20260507214724 57 334 13.0 15.0 0.00 0.00 0.00 48 1013.8
20260507214221 58 327 12.0 15.0 0.00 0.00 0.00 48 1013.7
20260507213716 58 332 7.0 9.0 0.00 0.00 0.00 47 1013.8
20260507213213 58 310 11.0 13.0 0.00 0.00 0.00 46 1013.8
20260507212709 59 353 15.0 17.0 0.00 0.00 0.00 48 1013.9
20260507212206 58 328 12.0 13.0 0.00 0.00 0.00 45 1013.7
20260507211703 58 6 10.0 11.0 0.00 0.00 0.00 46 1013.7
20260507211158 58 341 12.0 13.0 0.00 0.00 0.00 47 1013.6
20260507210656 58 321 6.0 8.0 0.00 0.00 0.00 45 1013.6
20260507210152 58 334 13.0 15.0 0.00 0.00 0.00 48 1013.4
20260507205649 56 318 8.0 10.0 0.00 0.00 0.00 52 1013.4
20260507205146 57 344 9.0 10.0 0.00 0.00 0.00 51 1013.3
20260507204642 59 340 10.0 10.0 0.00 0.00 0.00 52 1013.3
20260507204140 58 319 8.0 9.0 0.00 0.00 0.00 48 1013.6
20260507203637 57 346 11.0 13.0 0.00 0.00 0.00 49 1013.4
20260507203135 57 348 7.0 8.0 0.00 0.00 0.00 55 1013.5
20260507202630 58 342 15.0 17.0 0.00 0.00 0.00 50 1013.3
20260507202127 57 338 9.0 10.0 0.00 0.00 0.00 50 1013.5
20260507201622 58 333 15.0 17.0 0.00 0.00 0.00 51 1013.3
20260507201119 58 311 10.0 10.0 0.00 0.00 0.00 50 1013.3
20260507200615 58 330 15.0 16.0 0.00 0.00 0.00 50 1013.6
20260507200111 57 338 10.0 10.0 0.00 0.00 0.00 47 1013.4
20260507195609 58 319 10.0 10.0 0.00 0.00 0.00 47 1013.5
20260507195106 58 268 10.0 10.0 0.00 0.00 0.00 51 1013.5
20260507194602 57 337 10.0 13.0 0.00 0.00 0.00 51 1013.7
20260507194057 56 332 14.0 16.0 0.00 0.00 0.00 52 1013.5
20260507193555 57 301 11.0 14.0 0.00 0.00 0.00 54 1013.7
20260507193052 58 337 14.0 16.0 0.00 0.00 0.00 49 1013.6
20260507192548 57 323 11.0 13.0 0.00 0.00 0.00 49 1013.6
20260507192045 58 298 13.0 16.0 0.00 0.00 0.00 50 1013.4
20260507191540 57 294 8.0 9.0 0.00 0.00 0.00 46 1013.9
20260507191038 57 305 19.0 21.0 0.00 0.00 0.00 48 1013.9
20260507190535 58 297 11.0 13.0 0.00 0.00 0.00 49 1014.0
20260507190034 57 316 8.0 10.0 0.00 0.00 0.00 51 1013.7
20260507185532 57 279 8.0 9.0 0.00 0.00 0.00 51 1013.7
20260507185028 57 301 11.0 15.0 0.00 0.00 0.00 45 1013.7
20260507184526 57 312 10.0 10.0 0.00 0.00 0.00 46 1013.9
20260507184024 57 344 13.0 15.0 0.00 0.00 0.00 55 1013.8
20260507183519 56 281 8.0 9.0 0.00 0.00 0.00 50 1014.1
20260507183017 57 319 16.0 18.0 0.00 0.00 0.00 49 1013.8
20260507182513 57 312 13.0 15.0 0.00 0.00 0.00 45 1014.1
20260507182009 56 327 6.0 7.0 0.00 0.00 0.00 47 1013.9
20260507181506 57 297 10.0 11.0 0.00 0.00 0.00 47 1013.9
20260507181002 56 335 13.0 15.0 0.00 0.00 0.00 51 1014.0
20260507180459 56 329 10.0 11.0 0.00 0.00 0.00 50 1014.2
20260507175955 56 304 12.0 14.0 0.00 0.00 0.00 47 1013.9
20260507175452 56 334 14.0 15.0 0.00 0.00 0.00 52 1013.9
20260507174949 56 278 11.0 14.0 0.00 0.00 0.00 51 1014.0
20260507174446 56 311 12.0 14.0 0.00 0.00 0.00 51 1014.1
20260507173944 55 294 10.0 11.0 0.00 0.00 0.00 52 1014.3
20260507173441 56 264 6.0 8.0 0.00 0.00 0.00 50 1014.1
20260507172938 56 337 11.0 11.0 0.00 0.00 0.00 50 1014.4
20260507172434 56 270 8.0 9.0 0.00 0.00 0.00 56 1014.4
20260507171931 56 279 10.0 13.0 0.00 0.00 0.00 58 1014.5
20260507171426 56 262 12.0 15.0 0.00 0.00 0.00 54 1014.5
20260507170924 55 267 12.0 14.0 0.00 0.00 0.00 56 1014.8
20260507170420 55 245 5.0 6.0 0.00 0.00 0.00 51 1014.5
20260507165917 55 303 11.0 13.0 0.00 0.00 0.00 55 1014.6
20260507165413 55 309 10.0 10.0 0.00 0.00 0.00 55 1014.7
20260507164909 55 260 11.0 14.0 0.00 0.00 0.00 50 1014.6
20260507164406 55 314 9.0 10.0 0.00 0.00 0.00 53 1014.8
20260507163903 55 340 12.0 13.0 0.00 0.00 0.00 55 1014.6
20260507163401 54 259 6.0 9.0 0.00 0.00 0.00 53 1014.5
20260507162857 54 261 7.0 8.0 0.00 0.00 0.00 54 1014.6
20260507162352 56 265 15.0 17.0 0.00 0.00 0.00 53 1014.7
20260507161850 55 297 14.0 16.0 0.00 0.00 0.00 56 1014.6
20260507161346 55 329 13.0 15.0 0.00 0.00 0.00 60 1014.9
20260507160843 54 292 10.0 13.0 0.00 0.00 0.00 57 1014.6
20260507160338 54 305 11.0 13.0 0.00 0.00 0.00 53 1014.7
20260507155835 54 260 8.0 9.0 0.00 0.00 0.00 56 1014.8
20260507155331 55 285 11.0 13.0 0.00 0.00 0.00 56 1014.8
20260507154828 54 299 10.0 10.0 0.00 0.00 0.00 59 1014.5
20260507154325 54 265 11.0 13.0 0.00 0.00 0.00 56 1014.6
20260507153822 54 314 11.0 13.0 0.00 0.00 0.00 60 1014.6
20260507153318 54 273 14.0 17.0 0.00 0.00 0.00 61 1014.6
20260507152815 54 305 11.0 13.0 0.00 0.00 0.00 57 1014.7
20260507152311 54 297 9.0 10.0 0.00 0.00 0.00 54 1014.3
20260507151807 54 248 6.0 8.0 0.00 0.00 0.00 55 1014.3
20260507151303 54 284 9.0 10.0 0.00 0.00 0.00 62 1014.5
20260507150801 53 279 11.0 13.0 0.00 0.00 0.00 57 1014.6
20260507150257 53 307 8.0 9.0 0.00 0.00 0.00 61 1014.6
20260507145753 53 335 7.0 8.0 0.00 0.00 0.00 61 1014.4
20260507145250 52 287 8.0 9.0 0.00 0.00 0.00 63 1014.5
20260507144747 53 290 8.0 8.0 0.00 0.00 0.00 60 1014.6
20260507144244 53 318 8.0 9.0 0.00 0.00 0.00 61 1014.7
20260507143741 53 321 5.0 7.0 0.00 0.00 0.00 62 1014.5
20260507143238 52 311 6.0 7.0 0.00 0.00 0.00 64 1014.8
20260507142734 52 318 6.0 8.0 0.00 0.00 0.00 67 1014.9
20260507142231 51 299 6.0 7.0 0.00 0.00 0.00 65 1014.6
20260507141727 51 325 6.0 7.0 0.00 0.00 0.00 70 1014.9